TimeMST,TemperatureF,Dew PointF,Humidity,Sea Level PressureIn,VisibilityMPH,Wind Direction,Wind SpeedMPH,Gust SpeedMPH,PrecipitationIn,Events,Conditions,WindDirDegrees,DateUTC
12:15 AM,23.4,8.2,53,30.10,10.0,Calm,Calm,-,N/A,,Clear,0,2013-02-13 07:15:00
12:35 AM,23.5,8.6,53,30.10,10.0,Calm,Calm,-,N/A,,Clear,0,2013-02-13 07:35:00
12:55 AM,24.4,8.6,51,30.10,10.0,Calm,Calm,-,N/A,,Clear,0,2013-02-13 07:55:00
1:15 AM,23.9,7.3,49,30.10,10.0,Calm,Calm,-,N/A,,Clear,0,2013-02-13 08:15:00
1:35 AM,23.4,7.5,51,30.10,10.0,Calm,Calm,-,N/A,,Clear,0,2013-02-13 08:35:00
1:55 AM,23.2,6.4,49,30.10,10.0,Calm,Calm,-,N/A,,Clear,0,2013-02-13 08:55:00
2:15 AM,22.6,7.5,52,30.10,10.0,Calm,Calm,-,N/A,,Clear,0,2013-02-13 09:15:00
2:35 AM,22.1,8.6,56,30.10,10.0,Calm,Calm,-,N/A,,Clear,0,2013-02-13 09:35:00
2:55 AM,21.6,9.1,59,30.09,10.0,Calm,Calm,-,N/A,,Clear,0,2013-02-13 09:55:00
3:15 AM,21.2,8.8,59,30.08,10.0,Calm,Calm,-,N/A,,Clear,0,2013-02-13 10:15:00
3:35 AM,20.3,8.6,61,30.08,10.0,Calm,Calm,-,N/A,,Clear,0,2013-02-13 10:35:00
3:55 AM,20.3,8.2,60,30.08,10.0,Calm,Calm,-,N/A,,Clear,0,2013-02-13 10:55:00
4:15 AM,20.8,8.4,59,30.08,10.0,Calm,Calm,-,N/A,,Clear,0,2013-02-13 11:15:00
4:35 AM,21.0,9.1,60,30.08,10.0,Calm,Calm,-,N/A,,Clear,0,2013-02-13 11:35:00
4:55 AM,20.8,9.5,62,30.07,10.0,Calm,Calm,-,N/A,,Clear,0,2013-02-13 11:55:00
5:15 AM,20.7,7.0,56,30.07,10.0,Calm,Calm,-,N/A,,Clear,0,2013-02-13 12:15:00
5:35 AM,19.8,8.6,62,30.08,10.0,Calm,Calm,-,N/A,,Clear,0,2013-02-13 12:35:00
5:55 AM,19.6,8.4,62,30.08,10.0,Calm,Calm,-,N/A,,Clear,0,2013-02-13 12:55:00
6:15 AM,18.5,7.9,63,30.08,10.0,Calm,Calm,-,N/A,,Clear,0,2013-02-13 13:15:00
6:35 AM,18.5,8.4,65,30.07,10.0,Calm,Calm,-,N/A,,Clear,0,2013-02-13 13:35:00
6:55 AM,18.5,9.7,68,30.08,10.0,Calm,Calm,-,N/A,,Clear,0,2013-02-13 13:55:00
7:15 AM,18.9,10.0,69,30.09,10.0,North,5.8,-,N/A,,Clear,350,2013-02-13 14:15:00
7:35 AM,21.0,10.6,64,30.09,10.0,Calm,Calm,-,N/A,,Clear,0,2013-02-13 14:35:00
7:55 AM,21.7,10.4,62,30.10,10.0,NNE,3.5,-,N/A,,Clear,30,2013-02-13 14:55:00
8:15 AM,21.9,11.5,64,30.10,10.0,NNE,3.5,-,N/A,,Clear,20,2013-02-13 15:15:00
8:35 AM,22.5,12.6,66,30.11,10.0,NNE,3.5,-,N/A,,Clear,30,2013-02-13 15:35:00
8:55 AM,23.9,13.1,63,30.11,10.0,East,6.9,-,N/A,,Clear,80,2013-02-13 15:55:00
9:15 AM,24.6,12.9,61,30.11,10.0,NE,6.9,-,N/A,,Clear,50,2013-02-13 16:15:00
9:35 AM,25.2,12.9,60,30.11,10.0,Calm,Calm,-,N/A,,Clear,0,2013-02-13 16:35:00
9:55 AM,27.1,13.1,56,30.11,10.0,Calm,Calm,-,N/A,,Clear,0,2013-02-13 16:55:00
10:15 AM,29.3,13.1,51,30.11,-9999.0,Calm,Calm,-,N/A,,Clear,0,2013-02-13 17:15:00
10:35 AM,30.9,12.2,46,30.11,10.0,ENE,5.8,-,N/A,,Clear,60,2013-02-13 17:35:00
10:55 AM,32.4,11.8,43,30.10,-9999.0,NE,6.9,-,N/A,,Clear,50,2013-02-13 17:55:00
11:15 AM,33.3,10.9,40,30.10,10.0,North,3.5,-,N/A,,Clear,10,2013-02-13 18:15:00
11:35 AM,33.4,6.3,32,30.09,10.0,NE,8.1,-,N/A,,Clear,40,2013-02-13 18:35:00
11:55 AM,34.5,7.0,32,30.09,10.0,NE,9.2,-,N/A,,Clear,50,2013-02-13 18:55:00
12:15 PM,35.1,7.0,31,30.08,10.0,NNE,9.2,16.1,N/A,,Clear,30,2013-02-13 19:15:00
12:35 PM,35.8,7.3,31,30.07,10.0,NE,8.1,-,N/A,,Clear,40,2013-02-13 19:35:00
12:55 PM,36.7,8.1,31,30.06,10.0,East,8.1,-,N/A,,Clear,80,2013-02-13 19:55:00
1:15 PM,37.4,9.0,31,30.05,10.0,NE,5.8,-,N/A,,Clear,50,2013-02-13 20:15:00
1:35 PM,38.1,8.8,30,30.04,10.0,ENE,6.9,-,N/A,,Clear,60,2013-02-13 20:35:00
1:55 PM,39.0,9.7,30,30.04,10.0,Calm,Calm,-,N/A,,Clear,0,2013-02-13 20:55:00
2:15 PM,39.9,9.5,29,30.04,10.0,Calm,Calm,-,N/A,,Clear,0,2013-02-13 21:15:00
2:35 PM,40.1,10.6,30,30.03,10.0,ENE,6.9,-,N/A,,Clear,60,2013-02-13 21:35:00
2:55 PM,40.6,10.2,29,30.03,10.0,Calm,Calm,-,N/A,,Clear,0,2013-02-13 21:55:00
3:15 PM,40.6,10.4,29,30.03,10.0,Calm,Calm,-,N/A,,Clear,0,2013-02-13 22:15:00
3:35 PM,41.0,11.1,29,30.03,10.0,Calm,Calm,-,N/A,,Clear,0,2013-02-13 22:35:00
3:55 PM,41.0,10.9,29,30.03,10.0,ENE,5.8,-,N/A,,Clear,70,2013-02-13 22:55:00
4:15 PM,40.8,10.9,29,30.02,10.0,East,5.8,-,N/A,,Clear,100,2013-02-13 23:15:00
4:35 PM,40.8,10.9,29,30.03,10.0,ENE,6.9,-,N/A,,Clear,70,2013-02-13 23:35:00
4:55 PM,40.1,10.9,30,30.03,10.0,East,3.5,-,N/A,,Clear,80,2013-02-13 23:55:00
5:15 PM,39.4,10.9,31,30.03,10.0,East,3.5,-,N/A,,Clear,100,2013-02-14 00:15:00
5:35 PM,39.2,10.9,31,30.03,10.0,SE,3.5,-,N/A,,Clear,140,2013-02-14 00:35:00
5:55 PM,38.5,10.9,32,30.04,10.0,SE,3.5,-,N/A,,Clear,130,2013-02-14 00:55:00
6:15 PM,38.3,10.9,32,30.05,10.0,Calm,Calm,-,N/A,,Clear,0,2013-02-14 01:15:00
6:35 PM,37.9,10.9,33,30.06,10.0,Calm,Calm,-,N/A,,Clear,0,2013-02-14 01:35:00
6:55 PM,35.4,12.6,39,30.06,10.0,NNW,6.9,-,N/A,,Clear,340,2013-02-14 01:55:00
7:15 PM,34.2,14.9,45,30.06,10.0,NNW,11.5,17.3,N/A,,Clear,340,2013-02-14 02:15:00
7:35 PM,33.6,16.2,49,30.07,10.0,NNW,6.9,-,N/A,,Clear,340,2013-02-14 02:35:00
7:55 PM,33.3,15.8,49,30.07,10.0,WNW,4.6,-,N/A,,Clear,290,2013-02-14 02:55:00
8:15 PM,32.7,15.3,49,30.07,10.0,Calm,Calm,-,N/A,,Clear,0,2013-02-14 03:15:00
8:35 PM,33.6,14.0,45,30.07,10.0,NW,4.6,-,N/A,,Clear,320,2013-02-14 03:35:00
8:55 PM,34.0,13.6,43,30.07,10.0,Calm,Calm,-,N/A,,Clear,0,2013-02-14 03:55:00
9:15 PM,32.2,14.2,48,30.08,10.0,Calm,Calm,-,N/A,,Clear,0,2013-02-14 04:15:00
9:35 PM,31.8,14.9,50,30.08,10.0,Calm,Calm,-,N/A,,Clear,0,2013-02-14 04:35:00
9:55 PM,30.9,14.9,52,30.08,10.0,Calm,Calm,-,N/A,,Clear,0,2013-02-14 04:55:00
10:15 PM,32.0,14.7,49,30.07,10.0,Calm,Calm,-,N/A,,Clear,0,2013-02-14 05:15:00
10:35 PM,30.6,16.0,55,30.08,10.0,Calm,Calm,-,N/A,,Clear,0,2013-02-14 05:35:00
10:55 PM,30.4,16.2,56,30.08,10.0,Calm,Calm,-,N/A,,Clear,0,2013-02-14 05:55:00
11:15 PM,29.8,16.5,58,30.08,10.0,Calm,Calm,-,N/A,,Clear,0,2013-02-14 06:15:00
11:35 PM,28.8,16.0,59,30.08,10.0,Calm,Calm,-,N/A,,Clear,0,2013-02-14 06:35:00
11:55 PM,29.7,16.3,58,30.09,10.0,Calm,Calm,-,N/A,,Clear,0,2013-02-14 06:55:00